Flag Weather past 2 weeks in Koudougou, Burkina Faso

Now
97 °F

Passing clouds.


Feels Like: 92 °F
Forecast: N/A
Wind: 12 mph from East

Location: Ouagadougou Airport

Current Time: Nov 22, 2014 at 3:43:30 PM

Latest Report: Nov 22, 2014 at 3:00 PM


Visibility: N/A

Pressure: 29.86 "Hg

Humidity: 13%

Dew point: 37 °F

Location of KoudougouLocation

Historic Weather in Koudougou — Graph

°F

Koudougou temperature yesterday

Maximum temperature yesterday: 97 °F (at 1:00 PM)
Minimum temperature yesterday: 73 °F (at 5:00 AM)
Average temperature yesterday: 85 °F

Past Weeks' High & Low Weather Summary

 TemperatureHumidityPressure
High102 °F (Nov 10, 3:00 PM)78% (Nov 15, 6:00 AM)30.01 "Hg (Nov 15, 6:00 AM)
Low68 °F (Nov 17, 5:00 AM)10% (Nov 13, 4:00 PM)29.74 "Hg (Nov 10, 3:00 PM)
Average85 °F37%29.88 "Hg
* Reported Nov 7 2:00 PM — Nov 22 2:00 PM, Koudougou, Weather by CustomWeather, © 2014

Note: Actual official high and low records may vary slightly from our data, if they occured in-between our weather recording intervals... More about our weather records

Advertising

Koudougou weather history for previous 24 hours

 ConditionsComfort  
Time TempWeatherWind HumidityBarometerVisibility
2:00 PM
Nov 22
97 °FSunny.12 mph13%29.89 "Hg10 mi
1:00 PM97 °FPassing clouds.13 mph13%29.92 "HgN/A
12:00 PM95 °FPassing clouds.13 mph13%29.95 "HgN/A
11:00 AM95 °FSunny.10 mph15%29.98 "Hg10 mi
10:00 AM91 °FSunny.9 mph17%29.98 "Hg10 mi
9:00 AM88 °FSunny.9 mph21%30.01 "Hg10 mi
8:00 AM81 °FClear.6 mph28%29.98 "Hg5 mi
7:00 AM73 °FHaze.6 mph38%29.98 "Hg2 mi
6:00 AM68 °FClear.No wind60%29.95 "Hg10 mi
5:00 AM70 °FClear.No wind53%29.95 "Hg10 mi
4:00 AM70 °FClear.No wind50%29.92 "Hg10 mi
3:00 AM70 °FClear.No wind50%29.92 "Hg10 mi
2:00 AM72 °FClear.No wind47%29.92 "Hg10 mi
1:00 AM73 °FClear.5 mph53%29.95 "Hg10 mi
12:00 AM82 °FClear.5 mph32%29.95 "Hg10 mi
10:00 PM
Nov 21
81 °FClear.3 mph37%29.95 "Hg10 mi
9:00 PM84 °FClear.5 mph31%29.95 "Hg10 mi
8:00 PM81 °FClear.No wind39%29.95 "Hg10 mi
7:00 PM86 °FClear.2 mph33%29.92 "Hg4 mi
6:00 PM90 °FClear.5 mph27%29.89 "Hg4 mi
5:00 PM93 °FClear.6 mph24%29.86 "Hg5 mi
4:00 PM97 °FSunny.5 mph22%29.86 "Hg10 mi
3:00 PM97 °FPassing clouds.10 mph18%29.86 "HgN/A
Weather by CustomWeather, © 2014

See weather overviewHow to use our weather pages